Weather WX

World > North America > United States > Ohio

Chesapeake, Ohio Regional Weather

Lat: 38.43N, Lon: 82.45W
Wx Zone: OHZ087
Warning FLW WEATHER ALERT - EXCESSIVE HEAT WARNING (More Info. Click Here) Warning
Feedback

Chesapeake, OH Regional Weather

Expires:201907190400;;282442
ASUS41 KCLE 190312
RWRCLE
OHIO REGIONAL WEATHER ROUNDUP
NATIONAL WEATHER SERVICE WILMINGTON, OH
1100 PM EDT THU JUL 18 2019

NOTE: "FAIR" INDICATES FEW OR NO CLOUDS BELOW 12,000 FEET WITH NO
SIGNIFICANT WEATHER AND/OR OBSTRUCTIONS TO VISIBILITY.


OHZ036-037-039>041-045>050-054>059-063>069-073>076-082>088-190400-
  CENTRAL AND SOUTHEAST OHIO
  
CITY           SKY/WX    TMP DP  RH WIND       PRES   REMARKS
COLUMBUS       FAIR      77  70  79 S3        29.93R                  
OSU AIRPORT    FAIR      75  72  90 CALM      29.93R                  
BOLTON FIELD   FAIR      73  72  96 SW3       29.95R                  
RICKENBACK AFB FAIR      74  73  96 S7        29.93S                  
NEWARK         FAIR      78  72  81 S3        29.94R                  
MARION         FAIR      75  71  87 S9        29.93R                  
LANCASTER      FAIR      75  72  90 S3        29.94S                  
ZANESVILLE     FAIR      79  73  82 S3        29.95R                  
NEW PHILLY     FAIR      77  73  87 SE3       29.95R                  
$$
  

SKY/WX - Weather  TMP - Temperature  DP - Dew Point  RH - Relative Humidity
WIND - Wind Direction/Speed PRES - Barometric Pressure VSB - Visibility
WCI - Wind Chill Index E13G22 Wind - East Wind 13 mph/Gusts of 22 mph